Tracking 28126 objects as of 1-Oct-2023
HD Live streaming from Space Station
objects crossing your sky now

STARLINK-3852

Track STARLINK-3852 now!
10-day predictions
STARLINK-3852 is classified as:


NORAD ID: 52345
Int'l Code: 2022-045Q
Perigee: 545.6 km
Apogee: 548.1 km
Inclination: 53.2 °
Period: 95.4 minutes
Semi major axis: 6917 km
RCS: Unknown
Launch date: April 29, 2022
Source: United States (US)
Launch site: AIR FORCE EASTERN TEST RANGE (AFETR)
Your satellite tracking list
Your tracking list is empty




NASA's NSSDC Master Catalog

Two Line Element Set (TLE):
1 52345U 22045Q   23274.20990325 -.00002261  00000-0 -12401-3 0  9994
2 52345  53.2168 236.8019 0001779  69.6444 290.4739 15.08842492 81334
Source of the keplerian elements: AFSPC